sat.trackr.live / text

‹ back to catalog

PLATERO

NORAD 58262 · 2023-174G

PAYLOAD ACTIVE UNKNOWN

§ Identity

Operator
Country
SPN
Launch date
2023-11-11
Launch site
AFWTR
Launch vehicle
Mass (kg)
RCS (m²)

External: N2YO · Heavens-Above · Gunter

§ Orbital elements

Epoch: 2026-05-24T22:06:36.393120Z

Period
92.22 min
Inclination
97.3927°
Eccentricity
0.0005324
Mean motion
15.61504903 rev/d
Perigee alt
379.7 km
Apogee alt
386.9 km
Semi-major
6,761.4 km
B*
3.4763e-4
RAAN
241.9183°
Arg perigee
175.1709°
Mean anomaly
184.9601°
Rev number
14,255

§ Raw data

PLATERO1 58262U 23174G   26144.92125455  .00029705  00000+0  34763-3 0  99982 58262  97.3927 241.9183 0005324 175.1709 184.9601 15.61504903142554

JSON: /api/v1/satellites/58262 · /tle

For live sub-satellite position, see the globe view (requires WebGL).

§ Visibility from observer

Set your observer location to see the next 7 days of passes ≥ 10°. The values pass through the URL so the page stays shareable.

No JS? Fill the form by hand. The geolocation button needs JavaScript.

§ Radio — SatNOGS DB

ModeDescriptionDownlinkUplink
QPSK S-band TT&C transceiver (operator-provided) 2.218 GHz 2.050 GHz

1 transmitter · refreshed weekly from db.satnogs.org